Regional Weather Roundup
Issued by NWS Sterling, VA

Home | Current Version | Previous Version | Graphics & Text | Print | Product List | Glossary On
Versions: 1 2 3 4 5 6 7 8 9 10 11 12 13 14 15 16 17 18 19 20 21 22 23 24 25 26 27 28 29 30 31 32 33 34 35 36 37 38 39 40 41 42 43 44 45 46 47 48 49 50
000
ASUS41 KLWX 200110
RWRLWX

REGIONAL WEATHER ROUNDUP
NATIONAL WEATHER SERVICE BALTIMORE MD/WASHINGTON DC
900 PM EDT SUN OCT 19 2014

Note: "FAIR" indicates few or no clouds below 12,000 feet
with no significant weather and/or obstructions to visibility.
 TC=TEMPERATURE CELSIUS

 * =Non NWS site. Station does not report precipitation (e.g. rain,
    snow, etc.), thunder, or fog.

DCZ001-MDZ009-015-VAZ040>042-051-053>054-200200-
WASHINGTON METRO

CITY           SKY/WX    TMP DP  RH WIND       PRES   REMARKS
WASHINGTON NAT MOCLDY    56  32  40 N5        30.10R
DULLES         MOCLDY    47  34  60 NW5       30.09R
ANDREWS AFB    CLEAR     51  33  50 NW8       30.09R
FT BELVOIR     PTCLDY    44  40  83 CALM      30.10R
QUANTICO       PTCLDY    47  41  80 NW6       30.11R
COLLEGE PARK*  CLEAR     45  39  81 CALM      30.09R
LEESBURG*      CLEAR     50  36  57 NW3       30.09S
MANASSAS*      PTCLDY    45  41  87 CALM      30.10R
GAITHERSBURG*  PTCLDY    43  36  75 CALM      30.12R

$$

MDZ006>007-011-014-200200-
BALTIMORE METRO

CITY           SKY/WX    TMP DP  RH WIND       PRES   REMARKS
BWI AIRPORT    MOCLDY    44  35  70 S3        30.08R
MD SCIENCE CTR   N/A     54  31  41 MISG      30.08R
ANNAPOLIS      CLEAR     49  33  54 W5        30.08R
FORT MEADE*    CLEAR     39  37  93 CALM      30.11R

$$

MDZ012-015-019>023-200200-
MARYLAND EASTERN SHORE

CITY           SKY/WX    TMP DP  RH WIND       PRES   REMARKS
OCEAN CITY     CLEAR     39  36  89 CALM      30.08R
SALISBURY      CLEAR     43  37  79 CALM      30.08R
BAY BRIDGE AP*   N/A     54  32  43 NW7       30.09R
CAMBRIDGE*     CLEAR     45  36  70 CALM      30.09R
EASTON*        PTCLDY    46  37  71 CALM      30.12R

$$

MDZ017>025-200200-
SOUTHERN MARYLAND

CITY           SKY/WX    TMP DP  RH WIND       PRES   REMARKS
PATUXENT RIVER CLEAR     46  36  68 W7        30.10R
ST INIGOES     CLEAR     44  36  73 CALM      30.10R
LEONARDTOWN*   NOT AVBL

$$

MDZ003>005-200200-
NORTH CENTRAL MARYLAND

CITY           SKY/WX    TMP DP  RH WIND       PRES   REMARKS
FREDERICK*     PTCLDY    50  34  53 CALM      30.12R
HAGERSTOWN APT PTCLDY    51  31  46 CALM      30.09R
WESTMINSTER*   PTCLDY    48  32  53 W8        30.08R

$$

MDZ501>502-200200-
WESTERN MARYLAND

CITY           SKY/WX    TMP DP  RH WIND       PRES   REMARKS
OAKLAND*       NOT AVBL
CUMBERLAND*    PTCLDY    50  32  50 CALM      30.14R

$$

VAZ025>031-200200-
SHENANDOAH VALLEY

CITY           SKY/WX    TMP DP  RH WIND       PRES   REMARKS
WINCHESTER*    PTCLDY    46  32  57 CALM      30.10R
FRONT ROYAL*   FAIR      46  34  61 CALM      30.09R
LURAY*         FAIR      46  37  71 CALM      30.10R
NEW MARKET*    FAIR      43  37  79 CALM      30.10R
STAUNTON*      MOCLDY    42  35  75 CALM      30.13R
WAYNESBORO*    FAIR      45  33  61 SW5       30.11R

$$

WVZ021-048>050-054>055-200200-
EASTERN WEST VIRGINIA PANHANDLE

CITY           SKY/WX    TMP DP  RH WIND       PRES   REMARKS
MARTINSBURG    CLEAR     43  33  68 CALM      30.10R
PETERSBURG*    MOCLDY   N/A N/A N/A NW3       30.12R

$$

VAZ036>039-050-200200-
CENTRAL FOOTHILLS

CITY           SKY/WX    TMP DP  RH WIND       PRES   REMARKS
CHARLOTTESVILL PTCLDY    49  35  58 S3        30.10R
CULPEPER*      PTCLDY    43  37  81 CALM      30.11R
ORANGE*        PTCLDY    45  39  81 CALM      30.12R
GORDONSVILLE*  FAIR      42  39  86 CALM      30.10R
WARRENTON*     FAIR      42  41  95 CALM      30.09R

$$

VAZ055>057-200200-
NORTH AND CENTRAL PIEDMONT

CITY           SKY/WX    TMP DP  RH WIND       PRES   REMARKS
FREDERICKSBRG* PTCLDY    47  40  77 CALM      30.10R
STAFFORD*      PTCLDY    40  40 100 CALM      30.14R

$$

NCZ024-NYZ072-PAZ021-071-VAZ022-071-200200-
OTHER REGIONAL OBSERVATIONS

CITY           SKY/WX    TMP DP  RH WIND       PRES   REMARKS
NEW YORK CITY  CLEAR     46  27  47 VRB7      30.08R
PHILADELPHIA   CLEAR     52  27  38 NW5       30.08R
PITTSBURGH     MOCLDY    44  35  70 CALM      30.08F
ROANOKE        PTCLDY    52  35  52 CALM      30.14R
RICHMOND       MOCLDY    48  37  65 CALM      30.11R
RALEIGH        PTCLDY    51  44  77 CALM      30.12R

$$

ANZ530>537-200200-
MARINE OBSERVATIONS

STATION/POSITION TIME  TEMP    WIND        PRES
                       AIR SEA DIR/SP/G
                 (UTC) (F)     (DEG/KT/KT) (MB)
THOMAS PT LIGHT  0100   55 64  300/  6/  7 1019.7R
BALT KEY BRIDGE  0100   56     270/  8/ 10 1018.2R
COVE POINT       0100   54     310/  6/  8 1018.6R
LEWISETTA        0100   54 63  240/  6/  8 1018.8R
SOLOMONS ISLAND  0100      66                N/A
PINEY POINT      0100          350/  8/  9   N/A

$$



USA.gov is the U.S. government's official web portal to all federal, state and local government web resources and services.